CAPE
0 0 0 0 0 0 0 0 0 0 0 0 0 0 0 0 78 233 110 477 635 889 583 698 435 877 915 1204 1316 1012 1141 1110 1356 1216 1224 607 0 521 566 691 512 838 706 866
0 0 0 0 0 0 0 0 0 0 0 0 0 0 0 0 0 12 175 7 702 716 680 732 517 658 1074 1209 1398 1138 1414 1435 1150 1075 1120 820 99 467 271 446 212 213 402 459
0 0 0 0 0 0 0 0 0 0 0 0 0 0 0 0 0 0 2 15 54 730 805 700 680 697 1177 1260 1362 1386 1192 1289 1296 1149 1055 1328 992 727 417 306 123 179 200 282
0 0 0 0 0 0 0 0 0 0 0 0 0 0 0 0 0 0 0 0 2 735 919 849 745 796 969 1191 1520 1638 1161 1259 1260 1600 1333 1073 973 708 616 355 106 100 151 70
0 0 0 0 0 0 0 0 0 0 0 0 0 0 0 4 5 0 9 31 32 797 1030 1014 876 793 1207 1492 1348 2012 1586 1863 1762 1490 1218 845 746 674 695 678 116 71 18 62
0 0 0 0 0 0 0 0 0 0 0 0 0 0 0 0 3 0 90 88 169 175 949 1165 1060 911 1165 1280 1761 1637 2507 2037 2227 1961 1316 1248 970 639 585 580 244 98 88 128
0 0 0 0 0 0 0 0 0 0 0 0 0 0 0 0 0 7 164 231 250 323 822 1057 1186 1009 1118 1234 1906 1965 2411 2190 2270 1940 1870 1602 1221 946 479 686 320 213 400 406
0 0 0 0 0 0 0 0 0 0 0 1 0 0 0 0 0 2 140 352 275 266 506 1050 1308 1180 1093 1233 1704 2060 2330 2385 2341 2135 2019 1716 1597 844 560 701 584 393 444 429
0 0 0 0 0 0 0 0 0 0 0 0 8 2 0 0 51 59 99 291 405 397 702 1139 1371 1393 1417 1242 1799 2128 2382 2357 2641 2290 2186 1723 1211 347 177 344 552 432 549 632
0 0 0 0 0 0 0 0 0 0 0 0 0 54 21 4 71 249 400 526 478 459 701 302 0 1237 1569 1313 2054 2428 2533 2641 2613 2477 1984 1761 1251 578 237 309 465 440 469 452
0 0 0 0 0 0 0 0 0 0 18 9 35 22 79 566 587 495 526 626 692 507 595 1004 344 1225 1431 1895 2605 2606 2692 2757 2551 2381 1794 1749 1738 1073 604 285 127 302 454 584
0 0 0 0 0 0 0 0 0 33 5 13 74 6 172 77 141 333 589 374 995 761 794 789 1211 1377 837 1908 2561 2914 2928 2908 2689 2395 1979 1818 1679 1681 977 496 206 513 773 511
0 0 0 0 0 0 0 0 0 0 11 46 23 54 114 14 9 0 0 93 727 831 850 1040 1092 500 0 0 1954 2977 2923 2864 2749 2417 2155 1854 1741 1762 1482 1197 740 849 694 287
0 0 0 0 0 0 0 0 0 0 0 0 0 97 164 14 21 1 4 0 528 973 881 929 1188 1284 372 96 2205 2424 2612 2823 2489 2274 2282 1977 1810 1635 1518 1340 959 914 915 431
0 0 0 0 0 0 0 0 0 0 0 0 0 0 79 75 0 6 0 164 901 725 715 701 682 953 1616 1683 2989 2751 2627 2714 2322 2202 2390 2056 1731 1845 1601 1429 1313 1383 1245 789
0 0 0 0 0 0 0 0 0 0 0 0 0 13 231 218 537 624 572 876 577 602 700 697 635 628 730 1398 1518 3115 2745 2613 2276 2329 2535 2244 1990 1877 1720 1664 1492 1186 1485 1289
0 0 0 0 0 0 0 0 0 0 0 0 14 238 222 165 454 654 865 393 473 463 425 412 443 543 589 544 1128 2529 2942 2917 2508 2743 2607 2432 2117 2047 1638 1583 1641 1673 1574 1313
0 0 0 0 0 0 0 0 0 0 0 18 142 77 47 31 472 227 47 45 296 273 276 302 243 173 292 573 804 1791 1741 3233 3186 2965 3033 2684 2136 2191 2004 1536 2090 1649 1752 1692
0 0 0 0 0 0 0 0 0 0 51 9 24 31 0 1 228 100 124 44 14 15 179 274 159 129 42 215 1784 1889 2249 2995 3406 3163 2996 2671 2450 2297 2272 1828 1870 1861 1758 1731
0 0 0 0 0 0 0 0 0 1 65 3 5 10 0 5 70 284 22 14 0 0 0 0 287 110 73 236 1673 1518 2413 2796 3140 3396 2974 2806 2760 2337 2113 2012 1557 1938 1710 1732
6 25 7 24 51 75 13 0 1 35 0 0 0 1 15 16 35 7 5 6 0 0 0 0 0 207 170 118 847 1516 2342 2154 2634 3363 3225 2906 2780 2727 2348 2090 1894 1727 1806 1848
0 0 0 0 15 61 1 0 10 5 0 0 0 0 0 0 0 0 0 0 0 0 0 0 0 0 379 296 247 1921 2064 2345 2367 2587 3014 3145 3160 2970 2599 2366 2104 1887 1970 1942
0 9 4 22 49 62 0 0 0 0 0 0 0 0 0 0 0 0 0 0 0 0 0 0 0 0 317 440 643 1760 1406 2581 2399 2156 2686 3028 3237 2989 2845 2487 2495 2235 2209 1604
8 0 9 0 49 0 14 0 13 24 0 0 0 0 0 0 0 0 0 0 0 0 0 0 0 0 6 613 563 1228 2512 2109 1717 1672 1867 2626 2697 2729 2728 2665 2529 2534 2247 1579
2 6 0 0 12 0 0 0 0 0 0 0 0 0 0 0 0 0 0 0 0 0 0 0 0 0 1 751 796 1578 1774 1339 1401 1425 1795 2310 2394 2174 2455 2263 1415 1873 1727 1664
0 0 0 0 0 0 0 0 0 0 0 0 0 0 0 3 7 4 0 0 2 0 0 0 14 9 99 802 587 1112 1382 1304 1015 811 705 1323 2022 2360 2370 1983 3 2 1 106
CIN
0 0 0 0 0 0 0 0 0 0 0 0 0 0 0 0 -79 -65 -63 -84 -103 -195 -141 -109 -184 -136 -118 -137 -171 -144 -125 -139 -101 -75 -65 -83 0 -91 -83 -59 -94 -62 -84 -47
0 0 0 0 0 0 0 0 0 0 0 0 0 0 0 0 0 -60 -73 -72 -99 -110 -125 -165 -152 -175 -145 -172 -163 -170 -137 -127 -130 -122 -81 -86 -153 -116 -114 -84 -133 -141 -114 -104
0 0 0 0 0 0 0 0 0 0 0 0 0 0 0 -21 0 0 -57 -107 -57 -100 -171 -186 -234 -213 -194 -176 -177 -175 -185 -158 -120 -107 -91 -58 -56 -73 -64 -65 -145 -138 -148 -109
0 0 0 0 0 0 0 0 0 0 0 0 0 0 0 0 0 0 0 0 -13 -104 -163 -201 -265 -244 -224 -200 -148 -158 -210 -171 -132 -98 -73 -69 -81 -87 -106 -104 -152 -149 -122 -126
0 0 0 0 0 0 0 0 0 0 0 0 0 0 0 -37 -26 0 -45 -56 -57 -131 -156 -183 -227 -217 -202 -181 -161 -123 -182 -133 -86 -105 -99 -97 -91 -100 -92 -51 -110 -125 -190 -131
0 0 0 0 0 0 0 0 0 0 0 0 0 0 0 0 -19 -29 -46 -37 -27 -65 -124 -142 -157 -185 -196 -168 -139 -139 -107 -119 -91 -84 -107 -69 -56 -65 -57 -37 -38 -115 -92 -101
0 0 0 0 0 0 0 0 0 0 0 0 0 0 0 0 0 -35 -37 -44 -34 -70 -99 -104 -137 -163 -191 -180 -142 -130 -107 -130 -108 -87 -68 -46 -54 -64 -85 -36 -40 -87 -45 -53
0 0 0 0 0 0 0 0 0 0 0 -22 -34 0 0 0 0 -34 -54 -22 -29 -23 -88 -104 -123 -143 -156 -172 -158 -124 -127 -116 -107 -89 -67 -46 -40 -98 -123 -71 -49 -75 -70 -55
0 0 0 0 0 0 0 0 0 0 0 0 -34 -7 0 -3 -43 -31 -45 -85 -79 -26 -43 -129 -134 -129 -152 -183 -175 -156 -149 -116 -94 -95 -74 -53 -111 -229 -200 -121 -52 -64 -94 -60
0 0 0 0 0 0 0 0 0 0 0 0 0 -34 -75 -77 -40 -74 -123 -125 -128 -124 -125 -498 0 -99 -134 -151 -170 -165 -136 -120 -110 -86 -82 -63 -123 -196 -239 -155 -101 -100 -115 -100
0 0 0 0 0 -3 0 0 0 0 -62 -28 -33 -52 -90 -145 -114 -119 -126 -133 -144 -142 -169 -141 -280 -123 -129 -146 -168 -150 -134 -106 -96 -75 -106 -77 -70 -131 -170 -213 -238 -150 -100 -92
0 0 0 0 0 0 0 0 0 -28 -9 -14 -38 -80 -179 -303 -225 -255 -293 -208 -95 -203 -232 -188 -149 -58 -110 -173 -168 -171 -133 -101 -95 -78 -100 -82 -62 -44 -125 -184 -234 -121 -75 -87
0 0 0 0 0 0 0 0 0 0 -51 -32 -28 -56 -254 -291 -297 0 0 -225 -106 -145 -197 -213 -176 -489 0 0 -109 -164 -148 -123 -107 -97 -76 -83 -56 -36 -56 -89 -121 -68 -106 -164
0 0 0 0 0 0 0 0 0 0 0 0 0 -44 -87 -130 -222 -29 -55 0 -146 -146 -194 -248 -185 -142 -129 -241 -117 -155 -157 -137 -143 -119 -91 -77 -62 -51 -62 -76 -89 -53 -70 -139
0 0 0 0 0 0 0 0 0 0 0 0 0 0 -169 -192 0 -83 0 -202 -108 -216 -236 -270 -275 -256 -153 -182 -91 -126 -121 -137 -139 -126 -98 -103 -94 -70 -66 -89 -75 -52 -43 -79
0 0 0 0 0 0 0 0 0 0 0 0 0 -55 -184 -235 -108 -106 -131 -40 -86 -173 -141 -190 -240 -291 -253 -224 -163 -78 -140 -144 -134 -116 -94 -101 -121 -81 -43 -52 -78 -71 -48 -46
0 0 0 0 0 0 0 0 0 0 0 0 -27 -80 -94 -119 -77 -45 -58 -71 -92 -180 -245 -275 -299 -261 -305 -265 -188 -75 -75 -120 -116 -96 -87 -85 -96 -105 -91 -52 -57 -41 -43 -51
0 0 0 0 0 0 0 0 0 0 0 -97 -82 -85 -119 -137 -71 -108 -204 -109 -53 -82 -163 -263 -329 -352 -298 -241 -170 -146 -177 -48 -106 -85 -66 -74 -103 -91 -95 -90 -42 -59 -45 -39
0 0 0 0 0 0 0 0 0 -7 -116 -161 -137 -156 0 -35 -118 -236 -242 -243 -217 -154 -32 -96 -201 -271 -373 -316 -76 -124 -116 -65 -75 -84 -94 -110 -98 -86 -72 -90 -58 -48 -38 -45
-2 0 0 0 0 0 0 0 0 -16 -55 -150 -118 -136 0 -196 -156 -135 -251 -292 0 0 0 0 -116 -158 -241 -257 -74 -158 -83 -92 -68 -99 -92 -99 -81 -89 -94 -87 -104 -36 -33 -20
-23 -27 -17 -5 -4 -4 -69 0 -12 -17 0 0 0 -164 -185 -300 -272 -315 -185 -144 0 0 0 0 0 -154 -172 -252 -167 -101 -66 -99 -87 -51 -85 -76 -61 -61 -76 -80 -79 -52 -22 -11
0 0 0 0 -18 -17 -7 0 -64 -79 0 0 0 0 0 0 0 0 0 0 0 0 0 0 0 0 -99 -143 -227 -35 -49 -64 -77 -100 -23 -40 -27 -38 -36 -39 -52 -37 -26 -10
0 -24 -43 -34 -40 -96 0 0 0 0 0 0 0 0 0 0 0 0 0 0 0 0 0 0 0 0 -97 -90 -110 -18 -114 -26 -62 -74 -55 -34 -30 -13 -14 -41 -5 -8 -12 -43
-24 -18 -57 0 -79 0 -193 0 -200 -146 0 0 0 0 0 0 0 0 0 0 0 -9 0 0 0 0 -48 -35 -72 -50 -28 -58 -95 -98 -85 -42 -24 -32 -41 -44 -26 -8 -14 -40
-26 -42 0 0 -37 0 0 0 0 0 0 0 0 0 0 0 0 -9 0 0 0 0 0 0 0 0 -16 -30 -34 -56 -61 -105 -93 -100 -79 -55 -43 -64 -33 -45 -179 -50 -62 -63
-16 0 0 0 0 0 0 0 0 0 0 0 0 0 0 -22 -15 -20 0 0 -40 -6 0 0 -107 -40 -111 -21 -39 -67 -86 -86 -129 -176 -261 -139 -58 -22 -30 -29 -25 0 0 -84
Wind_Speed
9 3 8 14 9 6 5 6 6 8 9 3 3 8 12 10 16 11 9 10 14 23 18 17 17 16 17 17 17 15 10 9 8 5 4 3 4 2 1 4 6 6 3 4
6 9 16 14 8 9 7 2 8 8 9 4 7 11 15 12 8 10 13 10 16 18 15 14 15 11 16 18 18 15 13 13 10 8 4 4 4 3 3 4 4 4 4 2
8 13 12 4 3 7 8 6 8 8 5 7 7 10 9 3 8 7 9 12 10 17 18 17 13 14 18 18 15 15 14 13 11 11 5 4 4 3 4 3 3 4 4 1
7 10 9 5 6 5 5 11 11 8 7 5 3 11 14 6 8 7 7 8 9 16 17 19 17 10 19 17 17 16 16 15 13 10 9 7 7 4 4 5 4 5 5 6
11 10 6 5 9 7 7 8 7 7 5 5 13 1 9 7 3 6 6 6 2 19 22 22 21 18 16 19 15 15 18 15 10 9 10 7 5 3 3 5 7 4 2 5
10 10 5 4 6 6 7 5 9 7 1 3 11 3 8 3 8 3 6 6 6 12 21 22 19 20 16 15 15 14 14 13 9 9 8 9 8 6 5 7 6 5 5 6
13 18 12 6 4 7 7 3 5 6 2 6 10 4 6 12 5 6 9 5 6 9 19 18 20 18 17 18 18 15 14 12 9 9 9 8 8 8 8 8 7 8 6 6
7 13 19 8 7 7 4 6 6 6 4 5 4 7 4 3 6 7 10 9 6 4 9 19 18 17 18 19 20 18 15 12 11 9 9 7 7 4 5 6 8 7 5 6
4 7 6 9 6 4 5 5 7 4 6 3 5 7 6 6 8 10 11 14 13 4 8 16 17 15 15 17 18 20 17 14 12 11 8 7 7 8 6 6 6 6 5 6
5 5 8 11 1 6 7 7 7 5 3 6 7 3 3 2 5 12 16 13 12 13 13 22 8 18 16 16 18 18 16 16 14 11 9 7 9 9 8 7 7 8 5 6
5 3 10 9 6 3 7 5 4 3 5 3 3 5 2 12 15 17 17 14 11 10 11 10 19 19 15 17 17 17 16 14 12 9 9 9 9 9 9 9 10 5 4 9
5 0 3 9 12 9 7 4 5 5 7 5 3 5 13 18 15 14 14 15 10 10 13 15 16 11 5 16 14 17 15 15 13 9 10 9 9 9 10 10 10 7 6 7
4 5 5 11 12 5 8 13 10 10 4 1 3 1 9 14 6 4 6 6 5 7 12 13 13 17 22 27 9 15 16 15 13 12 12 9 10 10 10 10 9 7 8 7
6 2 4 6 7 9 9 13 13 5 3 5 4 3 5 3 6 8 7 7 5 6 8 11 10 10 21 29 13 12 14 15 13 13 12 10 9 10 10 9 9 10 8 9
5 2 5 8 9 11 14 14 14 11 8 4 9 9 7 13 9 2 5 4 6 9 10 12 11 11 8 9 3 7 11 13 13 13 12 12 12 10 11 11 8 7 8 10
4 3 3 5 8 10 12 12 12 10 9 8 8 8 7 11 7 6 4 2 9 9 7 8 8 10 10 8 7 4 12 13 13 13 13 14 13 12 10 9 12 10 7 9
4 3 4 5 7 11 8 9 12 13 10 3 6 5 9 8 9 5 2 7 7 5 5 6 8 8 8 7 7 8 5 12 13 13 13 15 14 13 11 8 9 9 10 8
6 3 2 4 4 7 9 9 8 8 19 14 11 10 9 7 7 11 10 9 9 7 9 9 8 8 9 9 9 8 11 5 10 13 14 14 14 13 13 12 10 10 9 11
9 4 1 2 4 7 8 7 8 5 9 14 12 12 10 10 5 8 7 5 4 5 4 1 4 4 8 12 5 6 9 9 8 12 12 12 13 14 13 14 13 11 11 10
4 6 5 3 5 6 3 14 15 4 3 12 9 8 7 6 4 3 5 6 7 6 5 6 6 5 6 8 8 7 8 11 9 9 13 13 14 14 15 14 14 10 10 11
3 3 2 4 5 2 5 9 11 2 4 11 13 14 8 4 4 7 9 6 6 6 8 8 8 7 7 7 7 8 6 9 8 7 9 11 13 14 14 12 11 12 10 9
3 2 4 3 3 3 4 6 5 5 5 5 5 7 9 10 11 8 8 8 8 8 7 8 9 9 8 6 6 7 7 6 7 11 8 9 12 11 11 12 11 10 10 12
4 2 2 1 1 6 8 6 5 7 4 6 8 9 7 9 9 10 7 7 7 9 8 8 7 10 8 7 3 6 7 6 6 7 8 7 8 10 10 12 12 10 12 10
3 7 4 6 7 12 8 10 11 9 6 8 11 12 13 13 13 9 8 9 10 6 7 11 9 9 8 8 5 6 3 4 5 7 9 7 8 9 11 10 11 11 12 10
1 5 5 4 5 10 3 12 11 14 15 16 15 14 15 15 13 8 6 9 8 7 9 8 12 12 12 8 6 3 2 3 5 7 10 10 8 8 10 12 8 11 9 11
5 3 2 3 6 4 13 12 16 16 15 12 12 13 15 17 11 8 8 9 9 10 10 8 10 14 13 9 8 5 3 3 4 6 5 4 4 6 8 7 3 11 8 4
Wind_Direction
239 193 247 258 256 285 52 2 312 306 300 155 222 272 273 258 192 188 194 183 170 161 191 169 158 158 159 158 158 163 164 163 147 144 146 136 169 165 185 114 99 119 107 217
272 237 239 257 290 325 330 273 289 289 285 53 313 283 276 264 196 172 191 198 184 173 172 161 155 146 161 165 167 160 163 162 161 151 175 147 152 142 127 109 130 126 159 296
225 254 275 228 327 310 318 289 260 242 307 349 318 304 299 322 134 170 188 199 174 176 162 157 155 150 162 164 170 166 165 162 167 168 154 111 117 87 113 146 143 186 172 272
250 263 275 332 332 303 260 282 314 328 27 297 297 292 305 202 162 181 225 215 197 170 161 158 159 162 159 168 160 164 164 167 180 158 169 160 164 167 178 159 164 175 173 211
250 276 248 236 240 257 265 315 320 316 303 353 295 331 277 126 134 183 177 95 314 157 160 167 163 171 162 157 163 154 164 171 169 148 157 152 152 177 142 125 164 167 198 239
276 285 268 222 306 333 320 1 300 286 47 338 275 104 356 275 185 170 111 114 36 138 163 167 169 163 155 162 158 163 156 166 158 150 153 155 169 176 171 159 168 175 202 229
266 257 249 208 223 271 263 263 314 332 33 211 254 320 186 254 141 127 160 125 86 127 165 165 164 167 156 164 161 164 162 167 153 154 149 161 178 178 181 149 169 181 194 220
269 313 189 192 189 215 293 198 177 283 266 237 351 334 295 353 96 43 92 150 159 141 149 164 166 168 167 165 163 165 164 161 157 161 158 173 175 155 163 149 165 188 190 206
3 327 351 135 197 108 289 340 259 319 295 9 154 186 322 28 41 85 70 47 16 24 158 157 153 170 170 168 157 161 161 166 163 168 158 170 151 147 160 168 175 189 200 227
343 344 342 326 120 219 185 228 1 346 347 317 320 343 240 61 39 61 45 40 17 9 20 99 112 239 171 170 156 156 160 163 166 159 163 163 157 161 164 182 197 201 208 256
44 54 305 344 301 331 338 313 257 254 125 162 300 293 143 67 55 60 40 22 8 354 6 54 203 173 158 154 150 155 158 160 162 156 159 158 161 168 163 186 216 202 209 271
26 272 297 271 289 304 307 344 355 132 277 201 185 308 95 67 47 55 55 0 336 350 359 34 24 97 354 148 147 158 160 163 167 160 158 163 162 168 176 192 213 199 181 194
14 328 351 339 341 343 20 331 334 329 51 342 83 302 78 91 42 50 44 337 348 343 355 30 61 81 95 284 181 166 163 170 166 158 159 161 168 170 181 191 194 195 169 187
116 274 214 216 256 302 327 323 325 340 359 307 285 150 50 131 155 242 218 232 278 41 12 21 30 116 163 221 212 164 167 170 167 159 157 164 170 177 183 190 186 195 176 170
128 225 290 296 306 313 314 310 308 312 293 303 285 296 186 204 195 205 319 44 69 44 23 7 5 11 7 7 281 154 161 168 169 165 166 173 180 183 181 186 188 189 180 176
318 267 249 277 286 303 317 319 318 307 301 287 311 10 50 89 103 91 111 47 70 59 29 3 353 1 17 334 335 222 166 173 174 177 177 176 181 188 189 187 193 196 182 177
311 321 352 286 323 316 317 300 300 296 301 78 78 106 68 44 63 20 71 68 79 79 36 3 357 343 350 343 332 340 251 182 181 181 176 180 185 180 187 189 185 183 181 179
247 247 195 256 308 271 256 272 303 33 22 24 76 68 70 75 84 70 54 33 21 22 351 352 353 341 333 325 323 338 331 236 183 186 183 178 184 183 181 188 188 186 177 184
203 186 258 190 234 284 296 351 3 69 49 23 30 40 38 7 46 41 42 57 339 340 340 283 308 316 318 312 309 329 321 274 182 185 184 177 180 183 184 193 196 195 190 186
103 119 123 317 274 265 18 358 349 348 68 351 23 24 25 22 14 231 15 355 337 341 337 326 311 302 316 314 320 339 320 329 204 185 192 189 184 190 196 198 198 194 195 202
15 352 247 273 268 268 341 11 341 284 286 341 7 356 354 337 249 290 329 337 337 329 323 327 322 298 284 306 315 317 337 326 319 224 196 191 198 194 199 197 193 199 196 197
289 280 280 273 294 304 28 63 76 218 268 315 331 326 325 324 324 303 296 300 303 295 295 295 300 295 281 289 324 301 317 304 323 324 237 201 203 195 192 195 196 194 198 207
335 120 213 133 247 61 21 74 47 61 28 345 339 304 284 288 299 309 310 319 316 311 294 266 266 278 278 275 296 301 291 312 336 320 299 212 204 204 205 200 196 193 200 206
358 41 42 21 6 5 349 26 10 0 341 314 305 304 307 297 289 269 293 303 305 302 312 315 297 294 281 269 273 272 340 352 325 303 284 252 218 213 209 211 205 196 204 195
38 19 351 271 12 346 12 345 328 315 298 293 290 284 277 274 281 294 291 299 273 294 293 294 303 288 284 266 265 245 298 333 299 291 275 250 222 202 212 218 226 203 199 188
17 43 357 286 324 283 293 299 305 298 295 298 301 299 296 294 271 266 265 271 279 281 291 295 300 292 279 264 267 227 181 270 293 296 321 318 264 220 215 205 166 43 28 178